Showing default

FENGYUN 1C, 25730

Orbit data source: Space-Track

FENGYUN 1C, 25730 is a payload satellite owned by CNMSC (CN) in SSO that was launched on Mon, 10 May 1999 UTC via a CHANG ZHENG 4B launch vehicle from the Taiyaun Space Center, China (TSC). Payloads include a variety of satellites, spacecraft, and rockets equipped with specific instruments for various scientific and technological missions. These include communications satellites like Starlink; space stations such as the ISS; scientific satellites like the Hubble; Earth observation satellites from companies like Planet Labs, Umbra, and HawkEye 360; GPS; miniature CubeSats for education and research; and military/defense satellites.

Loading next visibility...
FENGYUN 1C details
Identifier
25730, 1999-025A
Orbit
SSO
Last TLE update12 hours ago
Origin
Flag of CNCNMSC (CN / PRC)
ManufacturerSISE
MissionNon-operational Civil Imaging
Bus & MotorFY-1, Unknown motor
Mass958 kg wet, ~958 kg dry
Launch date (UTC)
1999-05-10 (26 years ago)
Launch vehicle
CHANG ZHENG 4B
Launch site
Taiyaun Space Center, China (TSC)
Object type
Payload
Rocket body
Debris
Shape & HBRBox + 2 Pan, 8.6 m
Radar Cross Section5.659 m², Medium (>0.1 m² and < 1m²)

Expand to show TLE details & history

TLE from 12 hours ago
0 FENGYUN 1C
1 25730U 99025A   24356.09325420  .00004503  00000-0  20028-2 0  9993
2 25730  98.9216  51.1826 0013641   7.0200  22.5807 14.23361190320932
Epoch: 2024-12-21T02:14Z
Definitive object data (Epoch: 2024-12-21T02:14:17.162Z)
Latitude29.31601°
Longitude-77.56866°
Altitude808.586 km
Speed7.456 km/s
True Right ascension03h 04m 36s
True Declination29° 10' 14"
Sunlit
Object was in full shadow at TLE epoch
Visualization TLE readout
Latitude37.85491°
Longitude-79.00861°
Altitude810.944 km
Speed7.456 km/s
Apparent Right ascension02h 07m 19s
Apparent Declination1° 46' 55"
Sunlit
Object is in full shadow
Visualization observer readout
Local Sidereal Time13:07:21
Azimuth338.11° N
Elevation-46.102°
Doppler factor1
Orbital elements
Apogee altitude820.979 km
Perigee altitude801.365 km
Semi-major axis7,189.309 km
Eccentricity0.0013641
Inclination98.9216°
RAAN51.1826°
Arg. of periapsis7.02°
True anomaly22.64082°
Mean anomaly22.5807°
Eccentric anomaly22.61075°
Mean motion3.56051 °/min
BSTAR0.0020028
Orbital period101.11 mins
Loading maneuver chart data...
Loading historical data...
Loading historical data...
Loading historical data...
Loading historical data...
Loading historical data...
Loading historical data...
Loading historical data...

FENGYUN 1C Visibility forecast

Observer location: undefined°, undefined

Span
Click to sort rows by Start time (UTC) header in descending order
Start Az.
Max El. time (UTC)
Max El. Az.
Max El.
End time (UTC)
End Az.
9 mins2024-12-21 16:11:17.646Z34.291° NE2024-12-21 16:15:17.646Z95.865° ESE32.198°2024-12-21 16:20:17.646Z166.786° S
7 mins2024-12-21 17:52:17.646Z337.043° NNW2024-12-21 17:55:17.646Z290.825° WNW23.928°2024-12-21 17:59:17.646Z240.455° WSW
8 mins2024-12-22 03:32:17.646Z147.497° SSE2024-12-22 03:36:17.646Z54.697° ENE40.887°2024-12-22 03:40:17.646Z355.443° N
5 mins2024-12-22 05:14:17.646Z242.83° WSW2024-12-22 05:16:17.646Z268.117° W15.131°2024-12-22 05:19:17.646Z303.709° NW
|